This is the latest recevied weather packets stored in our database for station/object KQ4OSL. If no packets are shown the sender has not sent any weather packets the latest 10 day(s).
| Time | Temp. | Humidity | Pressure | Rain* | Wind** | Luminosity | Snow |
|---|---|---|---|---|---|---|---|
| 1788012509 | 23.33° C | 99% | 1022.8 hPa | 0 mm | - | 115 W/m² | - |
| 1788012209 | 22.78° C | 99% | 1023 hPa | 0 mm | - | 93 W/m² | - |
| 1788011908 | 22.78° C | 99% | 1022.8 hPa | 0 mm | - | 93 W/m² | - |
| 1788011606 | 22.78° C | 99% | 1022.7 hPa | 0 mm | - | 89 W/m² | - |
| 1788011303 | 22.78° C | 99% | 1022.6 hPa | 0 mm | - | 90 W/m² | - |
| 1788011001 | 22.78° C | 99% | 1022.7 hPa | 0 mm | - | 79 W/m² | - |
| 1788010697 | 22.22° C | 99% | 1022.7 hPa | 0 mm | - | 84 W/m² | - |
| 1788010396 | 22.22° C | 99% | 1022.6 hPa | 0 mm | - | 76 W/m² | - |
| 1788010096 | 22.22° C | 99% | 1022.6 hPa | 0 mm | - | 85 W/m² | - |
| 1788009791 | 22.22° C | 99% | 1022.6 hPa | 0 mm | - | 81 W/m² | - |
| 1788009489 | 22.22° C | 99% | 1022.6 hPa | 0 mm | - | 74 W/m² | - |
| 1788009184 | 22.22° C | 99% | 1022.5 hPa | 0 mm | - | 58 W/m² | - |
| 1788008879 | 21.67° C | 99% | 1022.4 hPa | 0 mm | - | 74 W/m² | - |
| 1788008575 | 21.67° C | 99% | 1022.4 hPa | 0 mm | - | 86 W/m² | - |
| 1788008272 | 21.67° C | 99% | 1022.6 hPa | 0 mm | - | 80 W/m² | - |
| 1788007970 | 21.67° C | 99% | 1022.4 hPa | 0 mm | - | 83 W/m² | - |
| 1788007669 | 21.67° C | 99% | 1022.3 hPa | 0 mm | - | 69 W/m² | - |
| 1788007365 | 21.67° C | 99% | 1022.4 hPa | 0 mm | - | 66 W/m² | - |
| 1788007059 | 21.11° C | 99% | 1022.5 hPa | 0 mm | - | 55 W/m² | - |
| 1788006757 | 21.11° C | 99% | 1022.5 hPa | 0 mm | - | 56 W/m² | - |
| 1788006452 | 21.11° C | 99% | 1022.5 hPa | 0 mm | - | 55 W/m² | - |
| 1788006152 | 21.11° C | 99% | 1022.2 hPa | 0 mm | - | 53 W/m² | - |
| 1788005851 | 21.11° C | 99% | 1022.3 hPa | 0 mm | - | 40 W/m² | - |
| 1788005546 | 20.56° C | 99% | 1022.5 hPa | 0 mm | - | 35 W/m² | - |
| 1788005245 | 20.56° C | 99% | 1022.1 hPa | 0 mm | - | 36 W/m² | - |
* Rain latest hour (hover to see other rain measurements)
** Current wind speed in m/s (hover to see current wind gust speed)